sat.trackr.live / text

‹ back to catalog

STARLINK-36536

NORAD 69510 · 2026-133C

PAYLOAD ACTIVE UNKNOWN

§ Identity

Operator
Country
US
Launch date
2026-06-12
Launch site
AFETR
Launch vehicle
Mass (kg)
RCS (m²)

Purposes: comms

External: N2YO · Heavens-Above · Gunter

§ Orbital elements

Epoch: 2026-09-20T04:35:57.783264Z

Period
93.85 min
Inclination
53.1574°
Eccentricity
0.0001155
Mean motion
15.34401930 rev/d
Perigee alt
461.9 km
Apogee alt
463.5 km
Semi-major
6,840.8 km
B*
5.1669e-4
RAAN
231.3783°
Arg perigee
85.1427°
Mean anomaly
274.9708°
Rev number
1,545

§ Raw data

STARLINK-365361 69510U 26133C   26263.19164101  .00017122  00000+0  51669-3 0  99902 69510  53.1574 231.3783 0001155  85.1427 274.9708 15.34401930 15456

JSON: /api/v1/satellites/69510 · /tle

For live sub-satellite position, see the globe view (requires WebGL).

§ Visibility from observer

Set your observer location to see the next 7 days of passes ≥ 10°. The values pass through the URL so the page stays shareable.

No JS? Fill the form by hand. The geolocation button needs JavaScript.